Time,WDIR10,WSPD10,WDIR150,WSP150,WDIR500,WSPD500
2019-11-22_00:00:00,188.33,3.59,190.52,5.85,199.30,12.95
2019-11-22_00:10:00,182.67,2.69,186.69,6.10,200.12,13.32
2019-11-22_00:20:00,173.53,2.89,182.67,6.50,199.80,13.47
2019-11-22_00:30:00,161.76,2.52,179.96,6.50,199.34,13.43
2019-11-22_00:40:00,159.53,2.48,177.00,6.53,198.62,13.34
2019-11-22_00:50:00,165.08,2.88,175.37,7.08,198.67,13.36
2019-11-22_01:00:00,166.59,3.32,173.86,7.55,198.89,13.41
2019-11-22_01:10:00,164.26,3.50,171.54,7.63,198.38,13.36
2019-11-22_01:20:00,162.56,3.47,170.51,7.64,197.88,13.43
2019-11-22_01:30:00,164.08,3.51,170.99,7.79,197.69,13.51
2019-11-22_01:40:00,165.91,3.62,171.66,7.97,197.35,13.67
2019-11-22_01:50:00,166.27,3.55,171.92,8.04,197.01,13.78
2019-11-22_02:00:00,165.40,3.53,171.49,8.08,196.74,13.85
2019-11-22_02:10:00,165.02,3.44,171.30,8.05,196.78,13.87
2019-11-22_02:20:00,164.58,3.34,171.17,7.94,196.95,13.87
2019-11-22_02:30:00,163.45,3.28,170.80,7.86,197.11,13.86
2019-11-22_02:40:00,162.26,3.24,170.38,7.82,197.39,13.86
2019-11-22_02:50:00,161.34,3.23,170.16,7.81,197.72,13.87
2019-11-22_03:00:00,160.55,3.23,169.96,7.81,198.20,13.86
2019-11-22_03:10:00,159.59,3.23,169.63,7.79,198.72,13.84
2019-11-22_03:20:00,158.41,3.27,169.11,7.81,199.08,13.85
2019-11-22_03:30:00,157.51,3.34,168.61,7.84,199.35,13.88
2019-11-22_03:40:00,157.31,3.45,168.18,7.87,199.45,13.93
2019-11-22_03:50:00,157.25,3.47,167.89,7.91,199.54,14.02
2019-11-22_04:00:00,156.91,3.54,167.51,7.96,199.54,14.13
2019-11-22_04:10:00,156.18,3.62,166.93,8.03,199.32,14.24
2019-11-22_04:20:00,155.43,3.70,166.22,8.11,199.00,14.30
2019-11-22_04:30:00,154.57,3.78,165.43,8.20,198.61,14.32
2019-11-22_04:40:00,153.89,3.86,164.78,8.33,198.20,14.28
2019-11-22_04:50:00,153.66,3.94,164.43,8.48,197.82,14.22
2019-11-22_05:00:00,153.79,4.00,164.32,8.62,197.49,14.14
2019-11-22_05:10:00,154.20,4.04,164.40,8.75,197.13,14.04
2019-11-22_05:20:00,154.48,4.05,164.43,8.82,196.76,13.95
2019-11-22_05:30:00,154.12,4.05,164.05,8.85,196.24,13.82
2019-11-22_05:40:00,153.66,4.05,163.50,8.89,195.49,13.66
2019-11-22_05:50:00,154.38,4.10,163.64,8.85,195.04,13.57
2019-11-22_06:00:00,155.28,4.09,163.92,8.82,194.66,13.45
2019-11-22_06:10:00,156.24,4.12,164.23,8.77,194.21,13.30
2019-11-22_06:20:00,156.97,4.14,164.43,8.75,193.62,13.11
2019-11-22_06:30:00,157.67,4.17,164.58,8.77,192.89,12.99
2019-11-22_06:40:00,158.12,4.19,164.50,8.74,192.11,12.90
2019-11-22_06:50:00,158.21,4.14,164.30,8.67,191.33,12.83
2019-11-22_07:00:00,158.16,4.06,164.12,8.55,190.72,12.77
2019-11-22_07:10:00,157.73,3.93,163.77,8.45,190.06,12.70
2019-11-22_07:20:00,156.76,3.76,163.02,8.33,189.33,12.62
2019-11-22_07:30:00,156.01,3.66,162.41,8.21,188.54,12.52
2019-11-22_07:40:00,155.97,3.63,162.07,8.16,187.65,12.45
2019-11-22_07:50:00,156.72,3.74,162.04,8.17,186.66,12.37
2019-11-22_08:00:00,157.81,3.84,162.11,8.21,185.52,12.30
2019-11-22_08:10:00,159.06,4.03,162.44,8.23,184.40,12.20
2019-11-22_08:20:00,160.71,4.22,163.26,8.21,183.37,12.10
2019-11-22_08:30:00,162.39,4.26,163.99,8.13,182.18,12.01
2019-11-22_08:40:00,163.24,4.06,163.83,7.82,181.34,11.90
2019-11-22_08:50:00,160.99,3.99,162.64,7.81,180.18,11.86
2019-11-22_09:00:00,160.37,4.07,162.71,7.66,178.85,11.78
2019-11-22_09:10:00,160.78,4.17,163.35,7.51,177.54,11.61
2019-11-22_09:20:00,160.03,4.18,162.08,7.04,176.46,11.49
2019-11-22_09:30:00,157.58,4.04,160.49,6.69,175.21,11.34
2019-11-22_09:40:00,156.70,3.97,159.22,6.32,174.09,11.27
2019-11-22_09:50:00,155.09,3.88,157.36,6.01,173.22,11.26
2019-11-22_10:00:00,152.72,3.82,155.26,5.87,172.55,11.27
2019-11-22_10:10:00,150.40,3.78,152.97,5.79,171.69,11.24
2019-11-22_10:20:00,147.67,3.74,150.13,5.74,170.40,11.17
2019-11-22_10:30:00,145.18,3.72,147.60,5.70,169.13,11.13
2019-11-22_10:40:00,143.33,3.72,145.53,5.64,167.84,11.09
2019-11-22_10:50:00,140.18,3.72,142.50,5.57,166.25,11.05
2019-11-22_11:00:00,137.01,3.76,139.73,5.59,164.41,11.07
2019-11-22_11:10:00,134.51,3.79,137.49,5.60,162.55,11.15
2019-11-22_11:20:00,131.66,3.75,134.69,5.50,160.88,11.25
2019-11-22_11:30:00,128.58,3.72,131.66,5.44,159.11,11.28
2019-11-22_11:40:00,126.30,3.73,129.30,5.50,157.44,11.31
2019-11-22_11:50:00,125.14,3.79,127.79,5.64,155.64,11.32
2019-11-22_12:00:00,124.47,3.87,126.83,5.82,153.88,11.30
2019-11-22_12:10:00,123.96,3.96,126.22,6.01,152.48,11.32
2019-11-22_12:20:00,123.83,4.04,126.04,6.17,151.34,11.41
2019-11-22_12:30:00,123.61,4.11,125.68,6.31,150.27,11.55
2019-11-22_12:40:00,123.17,4.13,125.07,6.41,149.28,11.68
2019-11-22_12:50:00,122.69,4.19,124.51,6.53,148.29,11.79
2019-11-22_13:00:00,121.99,4.29,123.81,6.69,146.95,11.86
2019-11-22_13:10:00,120.97,4.37,122.80,6.83,145.16,11.91
2019-11-22_13:20:00,119.37,4.44,121.23,7.00,143.00,11.89
2019-11-22_13:30:00,118.08,4.55,120.15,7.22,141.25,11.99
2019-11-22_13:40:00,116.91,4.49,119.21,7.44,139.49,12.34
2019-11-22_13:50:00,115.78,4.51,118.71,7.78,138.52,12.78
2019-11-22_14:00:00,114.75,4.52,118.30,8.16,137.54,12.85
2019-11-22_14:10:00,113.76,4.14,117.22,8.24,136.13,12.83
2019-11-22_14:20:00,115.53,4.50,118.83,8.61,135.09,12.91
2019-11-22_14:30:00,115.20,4.34,119.39,8.50,135.04,13.45
2019-11-22_14:40:00,113.98,4.08,118.64,8.57,135.07,14.03
2019-11-22_14:50:00,112.90,3.96,118.18,8.75,135.15,14.58
2019-11-22_15:00:00,112.48,3.96,118.01,8.97,135.48,14.97
2019-11-22_15:10:00,111.62,3.92,117.45,9.09,135.51,15.37
2019-11-22_15:20:00,110.69,3.82,117.29,9.13,135.41,15.79
2019-11-22_15:30:00,110.14,3.76,117.29,9.29,136.40,16.18
2019-11-22_15:40:00,110.27,3.74,117.63,9.47,137.63,16.54
2019-11-22_15:50:00,110.60,3.81,118.10,9.69,138.39,16.75
2019-11-22_16:00:00,112.20,3.86,119.03,9.86,139.46,16.84
2019-11-22_16:10:00,114.19,3.93,120.23,9.99,141.01,17.10
2019-11-22_16:20:00,115.77,3.98,121.47,10.10,142.51,17.49
2019-11-22_16:30:00,117.49,3.96,122.92,10.10,143.56,17.97
2019-11-22_16:40:00,119.14,3.95,124.25,10.16,144.12,18.52
2019-11-22_16:50:00,120.33,3.97,125.30,10.26,144.31,19.08
2019-11-22_17:00:00,121.26,4.03,126.10,10.42,144.53,19.61
2019-11-22_17:10:00,122.05,4.16,126.76,10.66,144.75,20.08
2019-11-22_17:20:00,122.65,4.30,127.27,10.91,144.97,20.53
2019-11-22_17:30:00,123.34,4.45,127.81,11.13,145.06,20.92
2019-11-22_17:40:00,123.87,4.60,128.11,11.35,144.84,21.22
2019-11-22_17:50:00,124.32,4.78,128.40,11.60,144.30,21.43
2019-11-22_18:00:00,124.71,4.89,128.55,11.77,143.29,21.60
2019-11-22_18:10:00,125.14,5.02,128.59,11.97,141.98,21.74
2019-11-22_18:20:00,125.51,5.17,128.46,12.16,140.80,21.90
2019-11-22_18:30:00,125.64,5.29,128.26,12.30,140.04,22.04
2019-11-22_18:40:00,125.71,5.39,128.10,12.38,139.64,22.14
2019-11-22_18:50:00,125.71,5.42,127.97,12.39,139.42,22.22
2019-11-22_19:00:00,125.61,5.39,127.82,12.37,139.18,22.24
2019-11-22_19:10:00,125.25,5.35,127.55,12.37,139.02,22.25
2019-11-22_19:20:00,124.74,5.33,127.18,12.38,138.81,22.27
2019-11-22_19:30:00,124.43,5.29,126.99,12.38,138.68,22.33
2019-11-22_19:40:00,124.09,5.26,126.70,12.34,138.37,22.34
2019-11-22_19:50:00,123.64,5.26,126.31,12.26,137.95,22.28
2019-11-22_20:00:00,123.17,5.17,126.00,12.16,137.64,22.19
2019-11-22_20:10:00,122.69,5.11,125.76,12.08,137.46,22.09
2019-11-22_20:20:00,122.36,5.07,125.71,12.02,137.63,22.00
2019-11-22_20:30:00,121.77,5.00,125.32,11.93,137.51,21.95
2019-11-22_20:40:00,121.52,4.99,125.23,11.93,137.29,21.91
2019-11-22_20:50:00,121.52,5.00,125.18,11.97,136.92,21.87
2019-11-22_21:00:00,120.86,5.04,124.63,12.02,136.23,21.73
2019-11-22_21:10:00,119.77,5.16,123.57,12.06,134.53,21.18
2019-11-22_21:20:00,117.08,5.15,121.18,11.88,134.45,20.80
2019-11-22_21:30:00,118.41,5.62,123.10,12.46,136.48,21.19
2019-11-22_21:40:00,124.25,6.40,127.18,13.11,138.22,21.25
2019-11-22_21:50:00,126.58,6.49,128.93,13.05,139.13,21.01
2019-11-22_22:00:00,127.34,6.38,129.50,12.82,139.16,20.70
2019-11-22_22:10:00,127.03,6.27,129.23,12.63,138.89,20.53
2019-11-22_22:20:00,126.55,6.20,128.79,12.52,138.66,20.43
2019-11-22_22:30:00,126.08,6.20,128.34,12.50,138.42,20.40
2019-11-22_22:40:00,125.85,6.22,128.08,12.53,138.32,20.40
2019-11-22_22:50:00,125.61,6.25,127.81,12.57,138.31,20.38
2019-11-22_23:00:00,125.57,6.26,127.76,12.56,138.41,20.32
2019-11-22_23:10:00,125.88,6.22,128.03,12.48,138.83,20.20
2019-11-22_23:20:00,126.44,6.15,128.56,12.36,139.38,20.05
2019-11-22_23:30:00,126.93,6.05,129.00,12.20,139.75,19.85
2019-11-22_23:40:00,127.28,5.93,129.39,12.02,140.16,19.68
2019-11-22_23:50:00,127.84,5.80,129.95,11.82,140.65,19.52
2019-11-23_00:00:00,128.41,5.65,130.50,11.61,141.12,19.34
